Time,TemperatureF,DewpointF,PressureIn,WindDirection,WindDirectionDegrees,WindSpeedMPH,WindSpeedGustMPH,Humidity,HourlyPrecipIn,Conditions,Clouds,dailyrainin,SoftwareType,DateUTC
2013-04-30 00:00:00,55.4,47.3,29.88,East,90,1.1,2.9,74,0.00,,---,0.00,VWS V14.01,2013-04-30 07:00:00,
2013-04-30 00:06:00,55.0,46.9,29.88,SSE,158,1.1,2.7,74,0.00,,---,0.00,VWS V14.01,2013-04-30 07:06:00,
2013-04-30 00:16:00,54.7,46.6,29.88,SSW,202,0.0,2.5,74,0.00,,---,0.00,VWS V14.01,2013-04-30 07:16:00,
2013-04-30 00:21:00,54.5,46.4,29.88,SSE,158,0.0,1.1,74,0.00,,---,0.00,VWS V14.01,2013-04-30 07:21:00,
2013-04-30 00:26:00,54.5,46.8,29.88,SE,135,0.0,2.2,75,0.00,,---,0.00,VWS V14.01,2013-04-30 07:26:00,
2013-04-30 00:31:00,54.3,46.6,29.88,SE,135,0.0,0.9,75,0.00,,---,0.00,VWS V14.01,2013-04-30 07:31:00,
2013-04-30 00:36:00,54.1,46.4,29.88,ESE,112,0.0,1.1,75,0.00,,---,0.00,VWS V14.01,2013-04-30 07:36:00,
2013-04-30 00:41:00,54.0,46.2,29.88,ESE,112,0.0,0.0,75,0.00,,---,0.00,VWS V14.01,2013-04-30 07:41:00,
2013-04-30 00:51:00,53.8,46.4,29.88,East,90,0.0,2.5,76,0.00,,---,0.00,VWS V14.01,2013-04-30 07:51:00,
2013-04-30 01:01:00,53.8,46.8,29.88,ESE,112,0.0,2.2,77,0.00,,---,0.00,VWS V14.01,2013-04-30 08:01:00,
2013-04-30 01:06:00,53.6,46.6,29.88,East,90,0.0,1.1,77,0.00,,---,0.00,VWS V14.01,2013-04-30 08:06:00,
2013-04-30 01:16:00,53.4,46.7,29.88,ENE,68,0.0,1.3,78,0.00,,---,0.00,VWS V14.01,2013-04-30 08:16:00,
2013-04-30 01:26:00,53.1,46.0,29.88,East,90,1.6,1.6,77,0.00,,---,0.00,VWS V14.01,2013-04-30 08:26:00,
2013-04-30 01:31:00,53.1,46.4,29.88,East,90,0.0,1.6,78,0.00,,---,0.00,VWS V14.01,2013-04-30 08:31:00,
2013-04-30 01:36:00,52.9,46.2,29.88,East,90,0.0,0.0,78,0.00,,---,0.00,VWS V14.01,2013-04-30 08:36:00,
2013-04-30 01:45:00,52.5,45.9,29.88,ESE,112,0.0,2.2,78,0.00,,---,0.00,VWS V14.01,2013-04-30 08:45:00,
2013-04-30 01:51:00,52.5,46.2,29.88,East,90,0.0,0.0,79,0.00,,---,0.00,VWS V14.01,2013-04-30 08:51:00,
2013-04-30 02:01:00,52.0,45.7,29.88,ENE,68,0.0,0.0,79,0.00,,---,0.00,VWS V14.01,2013-04-30 09:01:00,
2013-04-30 02:06:00,51.8,45.5,29.88,ENE,68,0.0,0.0,79,0.00,,---,0.00,VWS V14.01,2013-04-30 09:06:00,
2013-04-30 02:16:00,51.4,45.2,29.88,ENE,68,0.0,0.0,79,0.00,,---,0.00,VWS V14.01,2013-04-30 09:16:00,
2013-04-30 02:26:00,51.1,45.1,29.88,NNE,22,0.0,0.0,80,0.00,,---,0.00,VWS V14.01,2013-04-30 09:26:00,
2013-04-30 02:36:00,50.7,44.8,29.88,NNE,22,0.0,0.0,80,0.00,,---,0.00,VWS V14.01,2013-04-30 09:36:00,
2013-04-30 02:41:00,50.4,44.8,29.88,NNE,22,0.0,0.0,81,0.00,,---,0.00,VWS V14.01,2013-04-30 09:41:00,
2013-04-30 02:46:00,50.2,44.6,29.88,NNE,22,0.0,0.0,81,0.00,,---,0.00,VWS V14.01,2013-04-30 09:46:00,
2013-04-30 02:51:00,50.2,44.6,29.88,NNE,22,0.0,0.0,81,0.00,,---,0.00,VWS V14.01,2013-04-30 09:51:00,
2013-04-30 03:00:00,50.0,44.7,29.88,NNE,22,0.0,0.0,82,0.00,,---,0.00,VWS V14.01,2013-04-30 10:00:00,
2013-04-30 03:05:00,49.8,44.5,29.88,NNE,22,0.0,0.0,82,0.00,,---,0.00,VWS V14.01,2013-04-30 10:05:00,
2013-04-30 03:11:00,49.8,44.9,29.88,NE,45,0.0,0.9,83,0.00,,---,0.00,VWS V14.01,2013-04-30 10:11:00,
2013-04-30 03:16:00,50.0,45.0,29.88,NNE,22,0.0,0.0,83,0.00,,---,0.00,VWS V14.01,2013-04-30 10:16:00,
2013-04-30 03:21:00,50.0,45.0,29.88,NNE,22,0.0,1.1,83,0.00,,---,0.00,VWS V14.01,2013-04-30 10:21:00,
2013-04-30 03:26:00,49.8,44.5,29.88,WNW,292,0.0,0.0,82,0.00,,---,0.00,VWS V14.01,2013-04-30 10:26:00,
2013-04-30 03:36:00,49.5,44.8,29.88,WNW,292,0.0,0.0,84,0.00,,---,0.00,VWS V14.01,2013-04-30 10:36:00,
2013-04-30 03:46:00,49.3,44.7,29.88,WNW,292,0.0,0.0,84,0.00,,---,0.00,VWS V14.01,2013-04-30 10:46:00,
2013-04-30 03:51:00,49.1,44.5,29.88,WNW,292,0.0,0.0,84,0.00,,---,0.00,VWS V14.01,2013-04-30 10:51:00,
2013-04-30 04:01:00,49.3,45.0,29.88,WNW,292,0.0,0.0,85,0.00,,---,0.00,VWS V14.01,2013-04-30 11:01:00,
2013-04-30 04:11:00,48.7,44.1,29.88,WNW,292,0.0,0.0,84,0.00,,---,0.00,VWS V14.01,2013-04-30 11:11:00,
2013-04-30 04:21:00,48.6,44.3,29.88,WNW,292,0.0,0.0,85,0.00,,---,0.00,VWS V14.01,2013-04-30 11:21:00,
2013-04-30 04:26:00,48.6,44.0,29.88,WNW,292,0.0,0.0,84,0.00,,---,0.00,VWS V14.01,2013-04-30 11:26:00,
2013-04-30 04:36:00,48.2,43.9,29.88,WNW,292,0.0,0.0,85,0.00,,---,0.00,VWS V14.01,2013-04-30 11:36:00,
2013-04-30 04:45:00,48.2,44.2,29.88,WNW,292,0.0,0.0,86,0.00,,---,0.00,VWS V14.01,2013-04-30 11:45:00,
2013-04-30 04:51:00,48.2,44.2,29.88,WNW,292,0.0,0.0,86,0.00,,---,0.00,VWS V14.01,2013-04-30 11:51:00,
2013-04-30 05:01:00,48.0,44.0,29.88,WNW,292,0.0,0.0,86,0.00,,---,0.00,VWS V14.01,2013-04-30 12:01:00,
2013-04-30 05:11:00,48.2,44.5,29.88,WNW,292,0.0,0.0,87,0.00,,---,0.00,VWS V14.01,2013-04-30 12:11:00,
2013-04-30 05:21:00,48.0,44.3,29.88,WNW,292,0.0,0.0,87,0.00,,---,0.00,VWS V14.01,2013-04-30 12:21:00,
2013-04-30 05:31:00,48.0,44.3,29.88,WNW,292,0.0,0.0,87,0.00,,---,0.00,VWS V14.01,2013-04-30 12:31:00,
2013-04-30 05:36:00,48.2,44.8,29.88,NNE,22,0.0,2.5,88,0.00,,---,0.00,VWS V14.01,2013-04-30 12:36:00,
2013-04-30 05:46:00,47.8,44.5,29.88,NNE,22,0.0,0.0,88,0.00,,---,0.00,VWS V14.01,2013-04-30 12:46:00,
2013-04-30 05:51:00,47.8,44.5,29.88,NNE,22,0.0,0.0,88,0.00,,---,0.00,VWS V14.01,2013-04-30 12:51:00,
2013-04-30 05:56:00,47.8,44.5,29.88,WNW,292,0.0,0.0,88,0.00,,---,0.00,VWS V14.01,2013-04-30 12:56:00,
2013-04-30 06:05:00,47.7,44.6,29.88,WNW,292,0.0,0.0,89,0.00,,---,0.00,VWS V14.01,2013-04-30 13:05:00,
2013-04-30 06:11:00,47.7,44.9,29.88,WNW,292,0.0,0.0,90,0.00,,---,0.00,VWS V14.01,2013-04-30 13:11:00,
2013-04-30 06:20:00,47.8,44.8,29.88,WNW,292,0.0,0.0,89,0.00,,---,0.00,VWS V14.01,2013-04-30 13:20:00,
2013-04-30 06:26:00,48.0,45.2,29.88,North,0,0.9,2.0,90,0.00,,---,0.00,VWS V14.01,2013-04-30 13:26:00,
2013-04-30 06:31:00,48.4,45.9,29.88,North,0,0.0,2.9,91,0.00,,---,0.00,VWS V14.01,2013-04-30 13:31:00,
2013-04-30 06:36:00,48.4,45.6,29.88,North,0,0.0,0.0,90,0.00,,---,0.00,VWS V14.01,2013-04-30 13:36:00,
2013-04-30 06:46:00,48.4,45.9,29.91,North,0,0.0,0.0,91,0.00,,---,0.00,VWS V14.01,2013-04-30 13:46:00,
2013-04-30 06:55:00,48.7,46.2,29.91,West,270,0.0,0.0,91,0.00,,---,0.00,VWS V14.01,2013-04-30 13:55:00,
2013-04-30 07:00:00,49.3,47.1,29.91,West,270,0.0,0.0,92,0.00,,---,0.00,VWS V14.01,2013-04-30 14:00:00,
2013-04-30 07:05:00,49.6,47.7,29.91,West,270,0.0,0.0,93,0.00,,---,0.00,VWS V14.01,2013-04-30 14:05:00,
2013-04-30 07:10:00,50.9,49.0,29.91,West,270,0.0,0.0,93,0.00,,---,0.00,VWS V14.01,2013-04-30 14:10:00,
2013-04-30 07:16:00,51.3,49.3,29.91,West,270,0.0,0.0,93,0.00,,---,0.00,VWS V14.01,2013-04-30 14:16:00,
2013-04-30 07:21:00,51.4,49.5,29.91,West,270,0.0,0.0,93,0.00,,---,0.00,VWS V14.01,2013-04-30 14:21:00,
2013-04-30 07:31:00,52.9,50.9,29.91,WNW,292,0.0,0.0,93,0.00,,---,0.00,VWS V14.01,2013-04-30 14:31:00,
2013-04-30 07:41:00,55.6,53.3,29.91,WNW,292,0.0,0.0,92,0.00,,---,0.00,VWS V14.01,2013-04-30 14:41:00,
2013-04-30 07:51:00,56.1,53.2,29.91,WNW,292,0.0,0.0,90,0.00,,---,0.00,VWS V14.01,2013-04-30 14:51:00,
2013-04-30 08:00:00,57.0,53.8,29.91,ESE,112,0.0,2.0,89,0.00,,---,0.00,VWS V14.01,2013-04-30 15:00:00,
2013-04-30 08:06:00,57.2,53.4,29.91,ESE,112,0.0,0.0,87,0.00,,---,0.00,VWS V14.01,2013-04-30 15:06:00,
2013-04-30 08:16:00,57.2,52.4,29.91,SSW,202,0.9,2.2,84,0.00,,---,0.00,VWS V14.01,2013-04-30 15:16:00,
2013-04-30 08:26:00,59.9,54.4,29.91,SE,135,2.0,2.5,82,0.00,,---,0.00,VWS V14.01,2013-04-30 15:26:00,
2013-04-30 08:31:00,60.8,53.9,29.91,SSE,158,1.3,2.7,78,0.00,,---,0.00,VWS V14.01,2013-04-30 15:31:00,
2013-04-30 08:40:00,63.0,54.2,29.91,South,180,2.5,2.5,73,0.00,,---,0.00,VWS V14.01,2013-04-30 15:40:00,
2013-04-30 08:45:00,64.0,53.7,29.91,SE,135,1.3,3.1,69,0.00,,---,0.00,VWS V14.01,2013-04-30 15:45:00,
2013-04-30 08:51:00,64.8,52.7,29.91,SSW,202,0.0,2.7,65,0.00,,---,0.00,VWS V14.01,2013-04-30 15:51:00,
2013-04-30 09:01:00,66.7,52.4,29.91,WSW,248,1.3,2.9,60,0.00,,---,0.00,VWS V14.01,2013-04-30 16:01:00,
2013-04-30 09:06:00,67.3,51.5,29.91,WSW,248,2.5,3.4,57,0.00,,---,0.00,VWS V14.01,2013-04-30 16:06:00,
2013-04-30 09:16:00,68.5,48.6,29.91,WSW,248,1.3,3.6,49,0.00,,---,0.00,VWS V14.01,2013-04-30 16:16:00,
2013-04-30 09:26:00,69.3,48.2,29.91,SSW,202,1.3,2.9,47,0.00,,---,0.00,VWS V14.01,2013-04-30 16:26:00,
2013-04-30 09:36:00,69.8,45.7,29.94,SW,225,2.7,5.4,42,0.00,,---,0.00,VWS V14.01,2013-04-30 16:36:00,
2013-04-30 09:41:00,69.3,45.2,29.94,North,0,2.7,5.8,42,0.00,,---,0.00,VWS V14.01,2013-04-30 16:41:00,
2013-04-30 09:51:00,71.6,47.9,29.94,NW,315,0.0,2.5,43,0.00,,---,0.00,VWS V14.01,2013-04-30 16:51:00,
2013-04-30 10:00:00,72.9,47.8,29.94,SSE,158,0.0,2.9,41,0.00,,---,0.00,VWS V14.01,2013-04-30 17:00:00,
2013-04-30 10:06:00,72.9,45.1,29.94,WSW,248,2.9,4.0,37,0.00,,---,0.00,VWS V14.01,2013-04-30 17:06:00,
2013-04-30 10:11:00,73.0,45.2,29.94,SW,225,2.2,4.9,37,0.00,,---,0.00,VWS V14.01,2013-04-30 17:11:00,
2013-04-30 10:20:00,74.1,45.5,29.94,ENE,68,3.1,3.1,36,0.00,,---,0.00,VWS V14.01,2013-04-30 17:20:00,
2013-04-30 10:25:00,75.4,45.9,29.94,North,0,1.6,3.1,35,0.00,,---,0.00,VWS V14.01,2013-04-30 17:25:00,
2013-04-30 10:30:00,76.5,46.8,29.94,WSW,248,1.1,3.8,35,0.00,,---,0.00,VWS V14.01,2013-04-30 17:30:00,
2013-04-30 10:35:00,76.6,46.2,29.94,SSW,202,1.3,3.4,34,0.00,,---,0.00,VWS V14.01,2013-04-30 17:35:00,
2013-04-30 10:40:00,77.5,46.2,29.94,NE,45,1.1,4.7,33,0.00,,---,0.00,VWS V14.01,2013-04-30 17:40:00,
2013-04-30 10:51:00,78.1,45.8,29.94,SW,225,3.8,5.4,32,0.00,,---,0.00,VWS V14.01,2013-04-30 17:51:00,
2013-04-30 11:00:00,77.9,44.9,29.94,NNW,338,3.1,4.7,31,0.00,,---,0.00,VWS V14.01,2013-04-30 18:00:00,
2013-04-30 11:11:00,77.4,44.4,29.94,WSW,248,3.1,5.8,31,0.00,,---,0.00,VWS V14.01,2013-04-30 18:11:00,
2013-04-30 11:20:00,78.8,45.6,29.91,West,270,2.5,3.8,31,0.00,,---,0.00,VWS V14.01,2013-04-30 18:20:00,
2013-04-30 11:26:00,79.2,46.0,29.91,NNE,22,1.6,4.9,31,0.00,,---,0.00,VWS V14.01,2013-04-30 18:26:00,
2013-04-30 11:35:00,78.8,44.8,29.94,SSW,202,1.3,4.0,30,0.00,,---,0.00,VWS V14.01,2013-04-30 18:35:00,
2013-04-30 11:46:00,80.1,45.9,29.94,SW,225,3.1,6.3,30,0.00,,---,0.00,VWS V14.01,2013-04-30 18:46:00,
2013-04-30 11:51:00,80.1,45.0,29.94,SW,225,2.2,4.7,29,0.00,,---,0.00,VWS V14.01,2013-04-30 18:51:00,
2013-04-30 12:00:00,81.5,46.2,29.91,NNW,338,2.7,4.3,29,0.00,,---,0.00,VWS V14.01,2013-04-30 19:00:00,
2013-04-30 12:10:00,82.2,44.9,29.91,SSW,202,4.3,4.7,27,0.00,,---,0.00,VWS V14.01,2013-04-30 19:10:00,
2013-04-30 12:15:00,82.9,43.5,29.94,WSW,248,1.3,4.3,25,0.00,,---,0.00,VWS V14.01,2013-04-30 19:15:00,
2013-04-30 12:20:00,81.7,42.5,29.94,SSW,202,2.9,5.8,25,0.00,,---,0.00,VWS V14.01,2013-04-30 19:20:00,
2013-04-30 12:25:00,81.0,41.9,29.94,WNW,292,2.2,5.8,25,0.00,,---,0.00,VWS V14.01,2013-04-30 19:25:00,
2013-04-30 12:35:00,81.7,42.5,29.91,East,90,1.6,7.8,25,0.00,,---,0.00,VWS V14.01,2013-04-30 19:35:00,
2013-04-30 12:46:00,83.1,41.5,29.91,West,270,1.6,4.0,23,0.00,,---,0.00,VWS V14.01,2013-04-30 19:46:00,
2013-04-30 12:51:00,84.4,42.6,29.91,NW,315,0.9,3.4,23,0.00,,---,0.00,VWS V14.01,2013-04-30 19:51:00,
2013-04-30 13:01:00,84.7,41.7,29.91,NW,315,2.5,4.3,22,0.00,,---,0.00,VWS V14.01,2013-04-30 20:01:00,
2013-04-30 13:10:00,85.8,41.4,29.91,NNW,338,2.5,4.7,21,0.00,,---,0.00,VWS V14.01,2013-04-30 20:10:00,
2013-04-30 13:20:00,86.2,40.5,29.91,SSE,158,1.3,7.6,20,0.00,,---,0.00,VWS V14.01,2013-04-30 20:20:00,
2013-04-30 13:30:00,87.1,39.9,29.91,NW,315,4.7,5.8,19,0.00,,---,0.00,VWS V14.01,2013-04-30 20:30:00,
2013-04-30 13:35:00,87.6,41.6,29.91,WNW,292,3.6,4.7,20,0.00,,---,0.00,VWS V14.01,2013-04-30 20:35:00,
2013-04-30 13:46:00,88.7,41.2,29.91,WNW,292,1.3,4.7,19,0.00,,---,0.00,VWS V14.01,2013-04-30 20:46:00,
2013-04-30 13:50:00,89.6,40.5,29.91,SSE,158,3.1,4.7,18,0.00,,---,0.00,VWS V14.01,2013-04-30 20:50:00,
2013-04-30 13:55:00,88.5,39.7,29.91,SSW,202,3.4,5.6,18,0.00,,---,0.00,VWS V14.01,2013-04-30 20:55:00,
2013-04-30 14:06:00,89.2,40.2,29.91,WSW,248,2.7,5.6,18,0.00,,---,0.00,VWS V14.01,2013-04-30 21:06:00,
2013-04-30 14:15:00,90.5,41.3,29.88,WNW,292,2.7,3.8,18,0.00,,---,0.00,VWS V14.01,2013-04-30 21:15:00,
2013-04-30 14:20:00,90.1,41.0,29.88,WSW,248,0.9,6.3,18,0.00,,---,0.00,VWS V14.01,2013-04-30 21:20:00,
2013-04-30 14:31:00,89.4,40.4,29.91,ENE,68,2.0,5.6,18,0.00,,---,0.00,VWS V14.01,2013-04-30 21:31:00,
2013-04-30 14:40:00,88.0,39.2,29.91,NNW,338,2.0,6.5,18,0.00,,---,0.00,VWS V14.01,2013-04-30 21:40:00,
2013-04-30 14:45:00,88.7,39.8,29.88,NNW,338,4.0,5.8,18,0.00,,---,0.00,VWS V14.01,2013-04-30 21:45:00,
2013-04-30 14:55:00,90.0,36.2,29.88,North,0,3.4,6.5,15,0.00,,---,0.00,VWS V14.01,2013-04-30 21:55:00,
2013-04-30 15:05:00,90.5,36.6,29.88,West,270,2.0,4.9,15,0.00,,---,0.00,VWS V14.01,2013-04-30 22:05:00,
2013-04-30 15:16:00,89.2,35.6,29.88,North,0,3.4,5.4,15,0.00,,---,0.00,VWS V14.01,2013-04-30 22:16:00,
2013-04-30 15:20:00,89.6,35.9,29.88,SW,225,1.3,6.0,15,0.00,,---,0.00,VWS V14.01,2013-04-30 22:20:00,
2013-04-30 15:30:00,89.2,35.6,29.88,North,0,3.1,4.9,15,0.00,,---,0.00,VWS V14.01,2013-04-30 22:30:00,
2013-04-30 15:40:00,88.3,34.9,29.88,SSW,202,4.3,5.8,15,0.00,,---,0.00,VWS V14.01,2013-04-30 22:40:00,
2013-04-30 15:51:00,86.9,35.3,29.88,WSW,248,2.7,9.8,16,0.00,,---,0.00,VWS V14.01,2013-04-30 22:51:00,
2013-04-30 16:00:00,87.3,35.6,29.88,SSW,202,1.6,7.2,16,0.00,,---,0.00,VWS V14.01,2013-04-30 23:00:00,
2013-04-30 16:10:00,87.6,30.8,29.88,SSW,202,4.0,5.4,13,0.00,,---,0.00,VWS V14.01,2013-04-30 23:10:00,
2013-04-30 16:15:00,88.3,34.9,29.85,WSW,248,1.6,6.3,15,0.00,,---,0.00,VWS V14.01,2013-04-30 23:15:00,
2013-04-30 16:25:00,88.0,31.0,29.85,North,0,0.9,5.6,13,0.00,,---,0.00,VWS V14.01,2013-04-30 23:25:00,
2013-04-30 16:31:00,87.4,30.6,29.88,ENE,68,2.5,7.4,13,0.00,,---,0.00,VWS V14.01,2013-04-30 23:31:00,
2013-04-30 16:41:00,87.8,30.9,29.88,SW,225,2.0,5.4,13,0.00,,---,0.00,VWS V14.01,2013-04-30 23:41:00,
2013-04-30 16:51:00,87.1,30.3,29.88,SW,225,1.1,6.7,13,0.00,,---,0.00,VWS V14.01,2013-04-30 23:51:00,
2013-04-30 17:00:00,87.8,30.9,29.88,North,0,2.0,4.3,13,0.00,,---,0.00,VWS V14.01,2013-05-01 00:00:00,
2013-04-30 17:05:00,87.4,30.6,29.88,WSW,248,2.0,4.7,13,0.00,,---,0.00,VWS V14.01,2013-05-01 00:05:00,
2013-04-30 17:16:00,87.1,30.3,29.88,SW,225,2.9,4.3,13,0.00,,---,0.00,VWS V14.01,2013-05-01 00:16:00,
2013-04-30 17:21:00,87.3,30.5,29.88,NNW,338,2.5,4.0,13,0.00,,---,0.00,VWS V14.01,2013-05-01 00:21:00,
2013-04-30 17:30:00,87.1,26.3,29.88,WSW,248,2.5,6.0,11,0.00,,---,0.00,VWS V14.01,2013-05-01 00:30:00,
2013-04-30 17:41:00,86.4,29.8,29.88,SW,225,1.6,4.7,13,0.00,,---,0.00,VWS V14.01,2013-05-01 00:41:00,
2013-04-30 17:52:00,84.9,24.6,29.88,WSW,248,2.7,4.7,11,0.00,,---,0.00,VWS V14.01,2013-05-01 00:52:00,
2013-04-30 18:01:00,85.3,28.9,29.88,SSW,202,3.6,7.2,13,0.00,,---,0.00,VWS V14.01,2013-05-01 01:01:00,
2013-04-30 18:11:00,84.9,28.6,29.88,SW,225,2.7,4.0,13,0.00,,---,0.00,VWS V14.01,2013-05-01 01:11:00,
2013-04-30 18:20:00,84.0,29.8,29.88,WSW,248,2.0,2.7,14,0.00,,---,0.00,VWS V14.01,2013-05-01 01:20:00,
2013-04-30 18:25:00,83.7,29.5,29.88,NW,315,0.9,2.7,14,0.00,,---,0.00,VWS V14.01,2013-05-01 01:25:00,
2013-04-30 18:35:00,83.3,29.2,29.88,WSW,248,0.9,2.9,14,0.00,,---,0.00,VWS V14.01,2013-05-01 01:35:00,
2013-04-30 18:40:00,82.9,32.2,29.88,SW,225,0.9,2.2,16,0.00,,---,0.00,VWS V14.01,2013-05-01 01:40:00,
2013-04-30 18:50:00,78.6,31.6,29.88,NNW,338,0.0,2.7,18,0.00,,---,0.00,VWS V14.01,2013-05-01 01:50:00,
2013-04-30 19:00:00,75.7,31.9,29.88,WSW,248,0.0,2.2,20,0.00,,---,0.00,VWS V14.01,2013-05-01 02:00:00,
2013-04-30 19:10:00,74.1,31.7,29.88,SW,225,1.6,2.2,21,0.00,,---,0.00,VWS V14.01,2013-05-01 02:10:00,
2013-04-30 19:20:00,73.2,32.1,29.88,WSW,248,1.3,2.5,22,0.00,,---,0.00,VWS V14.01,2013-05-01 02:20:00,
2013-04-30 19:25:00,73.0,33.1,29.88,NNW,338,0.0,1.6,23,0.00,,---,0.00,VWS V14.01,2013-05-01 02:25:00,
2013-04-30 19:35:00,71.8,33.1,29.88,NNE,22,0.0,1.6,24,0.00,,---,0.00,VWS V14.01,2013-05-01 02:35:00,
2013-04-30 19:46:00,70.3,33.9,29.88,NNE,22,0.0,0.0,26,0.00,,---,0.00,VWS V14.01,2013-05-01 02:46:00,
2013-04-30 19:51:00,69.4,35.0,29.88,NNE,22,0.0,0.0,28,0.00,,---,0.00,VWS V14.01,2013-05-01 02:51:00,
2013-04-30 20:01:00,67.5,35.8,29.85,NNE,22,0.0,0.0,31,0.00,,---,0.00,VWS V14.01,2013-05-01 03:01:00,
2013-04-30 20:11:00,66.2,37.0,29.85,NNE,22,0.0,0.0,34,0.00,,---,0.00,VWS V14.01,2013-05-01 03:11:00,
2013-04-30 20:21:00,64.9,37.4,29.88,NNE,22,0.0,0.0,36,0.00,,---,0.00,VWS V14.01,2013-05-01 03:21:00,
2013-04-30 20:31:00,64.0,37.3,29.88,North,0,0.0,2.0,37,0.00,,---,0.00,VWS V14.01,2013-05-01 03:31:00,
2013-04-30 20:36:00,63.5,36.8,29.88,North,0,0.0,0.0,37,0.00,,---,0.00,VWS V14.01,2013-05-01 03:36:00,
2013-04-30 20:46:00,61.9,36.0,29.88,NNW,338,0.0,0.0,38,0.00,,---,0.00,VWS V14.01,2013-05-01 03:46:00,
2013-04-30 20:51:00,61.2,36.0,29.88,NNW,338,0.0,0.0,39,0.00,,---,0.00,VWS V14.01,2013-05-01 03:51:00,
2013-04-30 21:00:00,60.8,36.3,29.88,NNW,338,2.0,2.0,40,0.00,,---,0.00,VWS V14.01,2013-05-01 04:00:00,
2013-04-30 21:05:00,61.0,37.1,29.88,North,0,2.0,2.2,41,0.00,,---,0.00,VWS V14.01,2013-05-01 04:05:00,
2013-04-30 21:10:00,61.0,37.1,29.88,NNW,338,2.0,2.5,41,0.00,,---,0.00,VWS V14.01,2013-05-01 04:10:00,
2013-04-30 21:15:00,61.3,36.8,29.88,NNW,338,2.0,2.5,40,0.00,,---,0.00,VWS V14.01,2013-05-01 04:15:00,
2013-04-30 21:21:00,61.2,36.0,29.88,North,0,2.5,2.7,39,0.00,,---,0.00,VWS V14.01,2013-05-01 04:21:00,
2013-04-30 21:30:00,61.0,35.2,29.88,NNW,338,1.6,2.2,38,0.00,,---,0.00,VWS V14.01,2013-05-01 04:30:00,
2013-04-30 21:36:00,60.8,35.1,29.88,North,0,1.3,2.2,38,0.00,,---,0.00,VWS V14.01,2013-05-01 04:36:00,
2013-04-30 21:46:00,60.3,35.2,29.91,NNE,22,0.0,2.2,39,0.00,,---,0.00,VWS V14.01,2013-05-01 04:46:00,
2013-04-30 21:52:00,59.9,34.9,29.91,NNW,338,1.1,2.0,39,0.00,,---,0.00,VWS V14.01,2013-05-01 04:52:00,
2013-04-30 22:00:00,59.0,34.1,29.88,WSW,248,0.0,2.9,39,0.00,,---,0.00,VWS V14.01,2013-05-01 05:00:00,
2013-04-30 22:06:00,58.3,34.1,29.88,NW,315,0.0,1.1,40,0.00,,---,0.00,VWS V14.01,2013-05-01 05:06:00,
2013-04-30 22:15:00,57.2,33.1,29.91,North,0,0.0,0.0,40,0.00,,---,0.00,VWS V14.01,2013-05-01 05:15:00,
2013-04-30 22:32:00,56.7,33.8,29.91,NNW,338,0.0,0.0,42,0.00,,---,0.00,VWS V14.01,2013-05-01 05:32:00,
2013-04-30 22:40:00,55.9,33.8,29.91,NNW,338,0.0,0.0,43,0.00,,---,0.00,VWS V14.01,2013-05-01 05:40:00,
2013-04-30 22:45:00,55.6,34.0,29.91,NNW,338,1.6,1.6,44,0.00,,---,0.00,VWS V14.01,2013-05-01 05:45:00,
2013-04-30 22:50:00,55.8,34.8,29.91,NNW,338,0.0,2.0,45,0.00,,---,0.00,VWS V14.01,2013-05-01 05:50:00,
2013-04-30 23:00:00,55.8,34.8,29.91,NNW,338,0.0,1.3,45,0.00,,---,0.00,VWS V14.01,2013-05-01 06:00:00,
2013-04-30 23:05:00,55.6,34.6,29.91,NW,315,0.0,0.0,45,0.00,,---,0.00,VWS V14.01,2013-05-01 06:05:00,
2013-04-30 23:10:00,55.4,34.4,29.91,North,0,2.5,2.9,45,0.00,,---,0.00,VWS V14.01,2013-05-01 06:10:00,
2013-04-30 23:15:00,55.8,34.8,29.91,North,0,0.0,3.1,45,0.00,,---,0.00,VWS V14.01,2013-05-01 06:15:00,
2013-04-30 23:20:00,55.8,34.2,29.91,NNW,338,0.0,0.0,44,0.00,,---,0.00,VWS V14.01,2013-05-01 06:20:00,
2013-04-30 23:25:00,55.2,33.7,29.91,NNW,338,0.0,1.3,44,0.00,,---,0.00,VWS V14.01,2013-05-01 06:25:00,
2013-04-30 23:30:00,55.0,33.5,29.91,North,0,0.0,0.0,44,0.00,,---,0.00,VWS V14.01,2013-05-01 06:30:00,
2013-04-30 23:35:00,54.7,33.2,29.91,NNE,22,0.0,0.0,44,0.00,,---,0.00,VWS V14.01,2013-05-01 06:35:00,
2013-04-30 23:40:00,54.5,33.6,29.91,North,0,0.0,0.0,45,0.00,,---,0.00,VWS V14.01,2013-05-01 06:40:00,
2013-04-30 23:45:00,54.3,34.0,29.91,North,0,0.0,0.0,46,0.00,,---,0.00,VWS V14.01,2013-05-01 06:45:00,
2013-04-30 23:50:00,54.3,34.0,29.91,North,0,0.0,0.0,46,0.00,,---,0.00,VWS V14.01,2013-05-01 06:50:00,
2013-04-30 23:55:00,54.3,34.0,29.91,North,0,0.0,0.0,46,0.00,,---,0.00,VWS V14.01,2013-05-01 06:55:00,